Probability
0 0 0 0 0 0 0 0 0 0 0 0 0 0 0 0 0 0 0 0 0 0 0 0 0 0 0 0 0 0 0 0 0 0 0 0 0 0 0 0 0 0 0 0
0 0 0 0 0 0 0 0 0 0 0 0 0 0 0 0 0 0 0 0 0 0 0 0 0 0 0 0 0 0 0 0 0 0 0 0 0 0 0 0 0 0 0 0
0 0 0 0 0 0 0 0 0 0 0 0 0 0 0 0 0 0 0 0 0 0 0 0 0 0 0 0 0 0 0 0 0 0 0 0 0 0 0 0 0 0 0 0
0 0 0 0 0 0 0 0 0 0 0 0 0 0 0 0 0 0 0 0 0 0 0 0 0 0 0 0 0 0 0 0 0 0 0 0 0 0 0 0 0 0 0 0
0 0 0 0 0 0 0 0 0 0 0 0 0 0 0 0 0 0 0 0 0 0 0 0 0 0 0 0 0 0 0 0 0 0 0 0 0 0 0 0 0 0 0 0
0 0 0 0 0 0 0 0 0 0 0 0 0 0 0 0 0 0 0 0 0 0 0 0 0 0 0 0 0 0 0 0 0 0 0 0 0 0 0 0 0 0 0 0
0 0 0 0 0 0 0 0 0 0 0 0 0 0 0 0 0 0 0 0 0 0 0 0 0 0 0 0 0 0 0 0 0 0 0 0 0 0 0 0 0 0 0 0
0 0 0 0 0 0 0 0 0 0 0 0 0 0 0 0 0 0 0 0 0 0 0 0 0 0 0 0 0 0 0 0 0 0 0 0 0 0 0 0 0 0 0 0
0 0 0 0 0 0 0 0 0 0 0 0 0 0 0 0 0 0 0 0 0 0 0 0 0 0 0 0 0 0 0 0 0 0 0 0 0 0 0 0 0 0 0 0
0 0 0 0 0 0 0 0 0 0 0 0 0 0 0 0 0 0 0 0 0 0 0 0 0 0 0 0 0 0 0 0 0 0 0 0 0 0 0 0 0 0 0 0
0 0 0 0 0 0 0 0 0 0 0 0 0 0 0 0 0 0 0 0 0 0 0 0 0 0 0 0 0 0 0 0 0 0 0 0 0 0 0 0 0 0 0 0
0 0 0 0 0 0 0 0 0 0 0 0 0 0 0 0 0 0 0 0 0 0 0 0 0 0 0 0 0 0 0 0 0 0 0 0 0 0 0 0 0 0 0 0
0 0 0 0 0 0 0 0 0 0 0 0 0 0 0 0 0 0 0 0 0 0 0 0 0 0 0 0 0 0 0 0 0 0 0 0 0 0 0 0 0 0 0 0
0 0 0 0 0 0 0 0 0 0 0 0 0 0 0 0 0 0 0 0 0 0 0 0 0 0 0 0 0 0 0 0 0 0 0 0 0 0 0 0 0 0 0 0
0 0 0 0 0 0 0 0 0 0 0 0 0 0 0 0 0 0 0 0 0 0 0 0 0 0 0 0 0 0 0 0 0 0 0 0 0 0 0 0 0 0 0 0
0 0 0 0 0 0 0 0 0 0 0 0 0 0 0 0 0 0 0 0 0 0 0 0 0 0 0 0 0 0 0 0 0 0 0 0 0 0 0 0 0 0 0 0
0 0 0 0 0 0 0 0 0 0 0 0 0 0 0 0 0 0 0 0 0 0 0 0 0 0 0 0 0 0 0 0 0 0 0 0 0 0 0 0 0 0 0 0
0 0 0 0 0 0 0 0 0 0 0 0 0 0 0 0 0 0 0 0 0 0 0 0 0 0 0 0 0 0 0 0 0 0 0 0 0 0 0 0 0 0 0 0
0 0 0 0 0 0 0 0 0 0 0 0 0 0 0 0 0 0 0 0 0 0 0 0 0 0 0 0 0 0 0 0 0 0 0 0 0 0 0 0 0 0 0 0
0 0 0 0 0 0 0 0 0 0 0 0 0 0 0 0 0 0 0 0 0 0 0 0 0 0 0 0 0 0 0 0 0 0 0 0 0 0 0 0 0 0 0 0
0 0 0 0 0 0 0 0 0 0 0 0 0 0 0 0 0 0 0 0 0 0 0 0 0 0 0 0 0 0 0 0 0 0 0 0 0 0 0 0 0 0 0 0
0 0 0 0 0 0 0 0 0 0 0 0 0 0 0 0 0 0 0 0 0 0 0 0 0 0 0 0 0 0 0 0 0 0 0 0 0 0 0 0 0 0 0 0
0 0 0 0 0 0 0 0 0 0 0 0 0 0 0 0 0 0 0 0 0 0 0 0 0 0 0 0 0 0 0 0 0 0 0 0 0 0 0 0 0 0 0 0
0 0 0 0 0 0 0 0 0 0 0 0 0 0 0 0 0 0 0 0 0 0 0 0 0 0 0 0 0 0 0 0 0 0 0 0 0 0 0 0 0 0 0 0
0 0 0 0 0 0 0 0 0 0 0 0 0 0 0 0 0 0 0 0 0 0 0 0 0 0 0 0 0 0 0 0 0 0 0 0 0 0 0 0 0 0 0 0
0 0 0 0 0 0 0 0 0 0 0 0 0 0 0 0 0 0 0 0 0 0 0 0 0 0 0 0 0 0 0 0 0 0 0 0 0 0 0 0 0 0 0 0
0 0 0 0 0 0 0 0 0 0 0 0 0 0 0 0 0 0 0 0 0 0 0 0 0 0 0 0 0 0 0 0 0 0 0 0 0 0 0 0 0 0 0 0
Wind_Speed
6 4 3 6 8 8 10 10 11 10 9 7 3 3 3 2 2 3 4 5 6 6 7 7 8 8 8 9 9 8 9 10 11 11 11 11 12 12 12 11 12 12 12 12
3 2 2 7 11 10 10 8 9 8 8 2 1 1 1 2 1 3 5 6 7 8 8 9 9 9 9 9 9 9 10 11 12 12 12 12 12 12 12 12 12 12 12 13
4 3 5 10 9 8 6 5 7 8 6 2 0 2 3 3 2 3 5 7 8 8 8 9 9 9 9 10 10 10 11 12 12 13 13 13 13 13 13 13 12 12 12 12
1 1 8 8 0 4 4 2 4 3 3 2 2 4 4 2 1 3 6 6 7 7 9 9 9 9 10 10 10 11 12 13 13 13 14 14 13 13 13 12 12 13 13 13
3 3 10 9 2 4 5 3 3 4 3 1 2 3 3 1 1 3 5 6 7 7 9 9 10 10 10 11 11 12 13 13 13 13 14 15 15 15 13 13 13 13 13 13
5 4 9 6 1 2 3 3 3 4 3 1 1 2 4 3 4 5 6 6 7 8 9 10 11 10 11 12 12 13 14 14 14 13 14 15 16 16 14 12 14 14 13 12
5 6 11 6 2 3 3 5 4 4 3 3 4 5 5 5 6 6 7 8 8 9 9 10 11 10 12 13 14 14 14 14 14 13 13 14 15 13 13 13 14 14 14 13
6 6 11 2 4 5 4 2 3 2 2 3 4 4 5 6 7 7 9 9 9 9 11 11 10 10 13 14 14 14 14 14 14 14 13 13 14 14 13 12 14 14 13 13
10 8 2 1 3 2 3 3 2 2 1 2 3 5 6 6 7 8 10 10 9 10 12 12 10 9 13 15 14 14 15 15 15 14 13 12 13 14 13 11 11 11 11 11
4 5 2 1 2 2 2 2 1 1 1 2 4 5 7 7 8 9 10 10 10 11 13 14 12 11 12 14 14 14 15 15 14 14 14 12 10 10 10 10 11 11 11 11
4 3 0 1 2 2 1 1 1 1 1 2 4 6 7 8 9 10 10 10 10 11 13 15 14 13 12 12 12 14 15 14 14 12 13 12 10 10 11 10 12 15 11 10
5 4 4 4 3 2 2 1 1 2 3 4 4 7 8 9 9 10 11 10 11 12 13 15 14 15 13 12 11 13 14 13 11 11 11 11 12 12 15 17 22 23 22 19
2 1 2 1 2 2 1 1 2 3 4 6 6 7 8 9 9 9 11 12 13 13 14 15 15 15 14 12 12 13 14 14 12 11 11 11 11 12 13 14 17 19 21 22
1 2 2 1 1 1 1 2 2 4 5 6 7 8 8 9 10 11 12 12 13 14 14 14 14 15 14 13 13 13 13 15 15 11 11 11 11 11 11 12 13 10 13 19
2 2 2 1 0 1 1 2 3 5 6 7 7 8 9 11 12 13 13 13 13 13 14 14 14 15 13 12 13 14 13 11 11 11 10 10 10 10 10 11 11 11 10 12
1 2 2 1 1 2 3 4 5 7 8 8 10 10 11 11 13 13 13 12 12 15 15 14 15 15 13 13 14 12 11 19 18 12 11 10 10 10 10 10 11 10 10 10
2 1 1 2 3 4 5 6 7 8 9 10 11 12 12 12 13 14 13 12 11 13 13 14 15 14 13 12 12 11 11 13 19 14 10 10 10 10 10 10 10 10 10 11
2 2 3 3 4 6 7 7 8 9 10 11 12 11 12 13 14 15 14 13 13 13 12 12 12 13 12 12 11 10 10 11 10 11 10 10 10 9 9 10 10 11 10 11
1 2 4 5 6 6 7 9 9 9 10 10 11 12 12 12 13 14 13 13 14 15 13 10 19 15 12 13 16 10 10 11 11 10 10 13 12 9 9 10 10 10 10 9
3 4 5 6 7 7 8 9 10 10 10 10 11 12 13 13 12 12 12 12 11 10 12 14 14 11 11 12 17 10 10 11 11 11 10 9 10 10 9 10 10 10 9 8
5 6 7 8 8 9 9 10 10 11 12 11 11 13 13 14 12 11 11 12 11 10 12 18 12 10 10 13 18 9 9 10 10 10 10 10 10 10 10 10 10 9 9 8
6 6 8 9 9 10 10 9 10 11 12 12 12 12 12 13 12 11 10 10 11 16 13 9 9 14 18 20 9 8 9 10 10 9 9 9 10 10 10 10 10 9 8 8
7 8 9 9 10 10 11 10 10 10 11 12 13 13 12 12 10 10 12 8 8 16 13 9 15 24 26 14 8 9 10 11 10 10 10 10 10 10 10 10 9 9 8 7
8 8 9 9 8 9 11 12 10 9 10 12 11 11 11 10 9 8 8 15 19 20 11 15 23 24 22 9 8 9 9 10 10 10 10 9 9 9 9 9 9 8 8 9
8 9 9 8 9 8 10 11 10 10 10 9 10 10 8 7 9 10 9 10 16 18 11 14 21 22 13 8 9 9 9 10 11 11 10 9 9 9 9 9 9 8 8 7
8 7 8 8 8 8 8 8 8 9 9 10 10 8 7 7 8 9 9 10 12 16 12 9 10 13 9 9 9 10 10 11 11 10 10 10 11 10 9 9 10 8 7 7
8 7 7 7 7 7 7 7 9 9 9 10 12 10 9 8 8 9 10 9 9 9 9 8 8 9 9 9 9 10 9 9 9 9 9 10 9 9 9 10 8 7 7 7
Wind_Direction
244 248 218 231 231 209 204 205 216 238 239 254 248 250 254 262 296 342 339 333 327 321 317 315 314 312 308 306 306 306 306 304 300 297 295 292 291 290 288 285 284 282 282 279
279 293 276 267 252 234 227 223 232 255 267 248 192 150 263 271 292 324 322 320 319 318 316 313 309 307 307 305 306 305 302 300 299 298 297 294 292 292 291 289 287 285 282 281
266 310 341 276 250 214 205 204 193 216 227 168 174 279 272 263 279 311 314 314 313 311 306 304 303 303 304 300 303 303 299 298 298 297 295 294 294 294 292 291 289 287 283 280
232 22 247 246 280 165 167 211 193 171 163 179 232 279 276 232 258 310 310 309 307 305 305 304 301 301 299 299 300 299 298 297 295 295 296 297 296 294 293 291 290 289 287 284
159 233 276 289 241 168 171 230 197 169 182 228 329 341 316 222 331 296 296 296 294 293 295 297 298 298 300 300 299 299 299 298 297 298 300 301 300 298 297 295 294 291 289 287
155 197 244 251 179 154 119 248 208 169 186 207 78 353 275 292 312 304 302 297 296 296 298 298 297 300 302 302 302 301 300 299 300 299 299 299 298 297 296 294 294 295 292 289
180 221 260 255 237 126 179 247 172 172 186 186 200 221 257 297 300 295 295 296 297 298 297 294 297 302 300 300 298 297 298 299 299 298 296 295 295 295 295 296 296 295 293 290
163 200 252 225 136 173 201 144 146 166 189 212 240 271 289 296 296 298 299 298 297 296 295 295 295 296 297 298 298 300 301 301 301 300 298 299 297 297 297 298 298 297 297 297
190 209 244 145 165 153 138 140 163 181 229 253 273 283 290 292 293 294 292 292 292 292 295 296 291 287 291 297 301 303 302 302 302 302 299 296 297 299 301 300 298 298 298 298
233 258 234 186 132 106 107 134 159 197 259 263 269 280 288 290 291 291 291 294 295 297 297 299 298 291 287 294 300 301 302 303 304 303 303 300 297 296 297 299 299 298 299 299
245 267 224 241 208 167 124 106 94 320 272 262 270 280 280 285 287 289 292 293 293 293 295 297 300 299 297 297 300 301 302 303 303 301 300 302 299 294 296 289 292 300 299 298
223 214 191 224 210 168 161 199 241 268 286 281 266 270 278 281 282 286 291 292 294 294 294 297 300 300 301 300 299 301 304 305 303 302 301 301 302 301 296 297 303 304 303 302
219 192 172 166 124 134 162 229 251 256 264 276 277 272 277 280 284 287 290 292 294 295 296 298 300 301 302 302 301 298 299 301 301 300 301 302 302 304 306 307 305 305 307 308
133 106 102 106 156 187 220 261 272 277 275 271 274 280 281 284 288 291 292 292 293 294 296 297 299 300 302 302 301 299 299 300 301 298 298 298 298 299 300 304 308 307 307 309
52 95 154 160 136 307 293 292 301 297 292 289 283 285 289 291 293 293 293 295 295 295 296 298 300 301 303 303 301 301 302 300 298 296 296 296 296 296 296 297 299 302 304 306
70 66 90 93 322 302 305 301 295 291 291 291 292 291 289 287 289 292 293 294 296 298 300 301 299 299 303 303 303 302 301 303 307 303 300 299 298 298 298 298 299 301 303 306
117 79 4 307 294 293 287 280 276 280 286 288 289 291 294 295 296 296 296 294 289 289 292 294 295 298 300 300 301 302 302 302 305 305 299 298 298 297 298 299 300 301 300 303
176 207 224 243 261 277 285 283 281 283 284 285 290 293 294 295 296 297 299 300 299 296 291 288 291 300 300 302 303 300 300 300 300 301 301 301 301 298 298 298 299 300 302 306
261 257 265 270 269 271 274 280 282 281 283 288 290 291 290 289 290 293 297 300 301 301 300 296 306 310 303 303 308 300 300 302 304 303 301 303 305 299 299 299 299 300 302 305
291 288 289 289 286 278 279 282 285 287 288 288 289 291 293 293 294 296 297 293 287 285 293 300 303 300 300 301 307 301 303 305 305 304 304 302 302 302 301 300 300 301 302 302
292 291 291 289 289 286 282 284 288 290 291 290 287 288 290 293 294 294 295 297 295 292 299 305 308 303 304 306 309 306 306 305 305 304 304 304 303 302 301 300 301 302 301 302
284 285 287 288 288 290 289 287 286 287 291 291 289 288 290 294 296 293 282 281 292 303 308 301 302 307 313 316 312 309 308 307 305 304 303 302 301 301 301 301 301 301 301 301
280 281 283 284 285 287 291 289 285 286 287 288 290 290 289 289 292 294 298 295 297 305 309 300 307 314 318 321 313 310 308 307 306 305 304 302 300 298 298 300 300 301 300 298
280 281 281 283 286 288 288 288 287 285 283 284 283 281 283 290 290 279 278 297 305 308 306 305 313 317 321 318 309 307 306 306 304 303 302 302 300 299 299 299 300 299 298 298
277 279 280 284 285 282 281 288 292 291 289 287 286 282 277 275 282 291 294 295 302 308 305 308 313 317 318 307 306 306 306 304 305 308 306 305 302 301 300 299 299 299 299 297
275 277 276 272 270 276 281 285 287 290 293 295 295 292 288 286 284 288 293 295 295 303 306 304 305 309 307 304 304 305 305 306 308 308 305 304 302 300 300 300 300 299 297 296
278 277 278 280 277 270 271 277 282 288 291 293 296 297 296 296 296 296 297 299 300 301 301 301 302 303 304 304 305 305 304 304 305 305 305 304 302 301 301 301 300 297 297 297